Evergreen, AL

5:12 AM CST on December 10, 2019 (GMT -0600)
Middleton

Weather History for KGZH - November, 2019

Change the Weather History Date:

Tuesday, November 19, 2019

  Actual Average (WUND) Record (WUND)
Temperature  
Mean Temperature 54 °F -  
Max Temperature 73 °F - - (-1)
Min Temperature 36 °F - - (-1)
Degree Days  
Heating Degree Days 10    
Growing Degree Days 4 (Base 50)    
Moisture  
Dew Point 39 °F    
Average Humidity 68    
Maximum Humidity 89    
Minimum Humidity 31    
Precipitation  
Precipitation 0.00 in - - ()
Sea Level Pressure  
Sea Level Pressure 29.97 in    
Wind  
Wind Speed 2 mph (WSW)    
Max Wind Speed 12 mph    
Max Gust Speed 17 mph    
Visibility 9 miles    
Events      
Averages and records for this station are not official NWS values.
T = Trace of Precipitation, MM = Missing Value Source: NWS Daily Summary

Daily Weather History Graph

Daily Weather History Graph

Search for Another Location

Airport or City:

Astronomy

Nov. 19, 2019 Rise Set
Actual Time 6:19 AM CST 4:47 PM CST
Civil Twilight 5:53 AM CST 5:13 PM CST
Nautical Twilight 5:23 AM CST 5:43 PM CST
Astronomical Twilight 4:54 AM CST 6:12 PM CST
Moon 11:38 PM CST (11/19) 12:31 PM CST (11/19)
Length of Visible Light 11h 20m
Length of Day
10h 28m
Waning Gibbous, 51% of the Moon is Illuminated
Nov 19
Waning Gibbous
Nov 19
Last Quarter
Nov 26
New
Dec 4
First Quarter
Dec 11
Full

Hourly Weather History & Observations

Time (CST) Temp. Dew Point Humidity Pressure Visibility Wind Dir Wind Speed Gust Speed Precip Events Conditions
12:53 AM 39.9 °F 36.0 °F 86% 29.90 in 7.0 mi Calm Calm - N/A   Clear
1:53 AM 39.0 °F 35.1 °F 86% 29.92 in 8.0 mi Calm Calm - N/A   Clear
2:53 AM 39.0 °F 34.0 °F 82% 29.92 in 10.0 mi Calm Calm - N/A   Clear
3:53 AM 37.0 °F 33.1 °F 86% 29.91 in 3.0 mi Calm Calm - N/A   Clear
4:53 AM 37.0 °F 33.1 °F 86% 29.94 in 7.0 mi Calm Calm - N/A   Clear
5:53 AM 36.0 °F 32.0 °F 86% 29.94 in 6.0 mi Calm Calm - N/A   Clear
6:53 AM 36.0 °F 33.1 °F 89% 29.97 in 9.0 mi North - - N/A   Clear
7:53 AM 43.0 °F 39.0 °F 86% 29.99 in 9.0 mi Calm Calm - N/A   Clear
8:53 AM 53.1 °F 44.1 °F 71% 29.99 in 10.0 mi South 4.6 mph - N/A   Clear
9:53 AM 61.0 °F 39.9 °F 46% 29.99 in 10.0 mi SW 9.2 mph - N/A   Partly Cloudy
10:53 AM 64.9 °F 39.9 °F 40% 29.97 in 10.0 mi West 6.9 mph - N/A   Clear
11:53 AM 69.1 °F 39.0 °F 33% 29.94 in 10.0 mi WSW 6.9 mph - N/A   Clear
12:53 PM 71.1 °F 39.0 °F 31% 29.93 in 10.0 mi West 8.1 mph - N/A   Clear
1:53 PM 72.0 °F 41.0 °F 33% 29.92 in 10.0 mi WSW 11.5 mph 17.3 mph N/A   Clear
2:53 PM 73.0 °F 42.1 °F 33% 29.92 in 10.0 mi WSW 6.9 mph - N/A   Clear
3:53 PM 72.0 °F 43.0 °F 35% 29.94 in 10.0 mi West 5.8 mph - N/A   Clear
4:53 PM 64.0 °F 45.0 °F 50% 29.95 in 10.0 mi Calm Calm - N/A   Clear
6:53 PM 52.0 °F 45.0 °F 77% 30.00 in 10.0 mi Calm Calm - N/A   Clear
7:53 PM 50.0 °F 45.0 °F 83% 30.01 in 10.0 mi Calm Calm - N/A   Clear
8:53 PM 48.0 °F 43.0 °F 83% 30.03 in 10.0 mi Calm Calm - N/A   Clear
9:53 PM 45.0 °F 41.0 °F 86% 30.04 in 10.0 mi Calm Calm - N/A   Clear
10:53 PM 45.0 °F 39.9 °F 82% 30.05 in 9.0 mi Calm Calm - N/A   Clear
11:53 PM 43.0 °F 39.0 °F 86% 30.06 in 9.0 mi Calm Calm - N/A   Clear